Lexington Weather

Lexington, Massachusetts, USA

38°F
1/28/2023 10:22pm 
  • Lexington Conditions: Clear
  • Temperature: 37.9°F / 3.3°CColder 0.8°F than last hour.
  • Dew Point: 27.7°FIncreased 0.6°Fsince last hour.
  • Relative Humidity: 66%Increased 3.0% since last hour.
  • Wind: Calm, 10-min avg: Calm, gust: None
  • Barometer: 30.25 in Steady
  • Visibility: 10 miles
  • Rain Today: 0.00 in
  •   

Regional Weather Roundup
for Boston, MA

        
000
ASUS41 KBOX 221410
RWRBOX

REGIONAL WEATHER ROUNDUP
NATIONAL WEATHER SERVICE BOSTON/NORTON MA
900 AM EST SUN JAN 22 2023

NOTE:  "FAIR" INDICATES FEW OR NO CLOUDS BELOW 12,000 FEET WITH NO 
SIGNIFICANT WEATHER AND/OR OBSTRUCTIONS TO VISIBILITY.

MAZALL-221500-
EASTERN MASSACHUSETTS
  
CITY           SKY/WX    TMP DP  RH WIND       PRES   REMARKS
BOSTON         CLOUDY    30  22  72 SW12G20   30.24R WCI  20          
BEVERLY        CLOUDY    29  22  75 SW5       30.22R WCI  24          
LAWRENCE       CLOUDY    29  23  78 SW6       30.23R WCI  23          
BEDFORD        CLOUDY    30  23  75 SW7       30.22R WCI  23          
NORWOOD        CLOUDY    32  22  66 SW6       30.23S WCI  26          
MARSHFIELD     CLOUDY    32  25  74 SW6       30.24R WCI  26          
PLYMOUTH       CLOUDY    32  24  72 W8        30.22S WCI  25          
TAUNTON          N/A    N/A N/A N/A MISG      30.22S                  
NEW BEDFORD    CLOUDY    33  26  75 S3        30.23R                  
$$

MAZALL-221500-
CAPE COD AND THE ISLANDS
  
CITY           SKY/WX    TMP DP  RH WIND       PRES   REMARKS
FALMOUTH       CLOUDY    34  25  69 SW7       30.24S WCI  28          
HYANNIS        CLOUDY    33  26  75 SW5       30.24R WCI  29          
CHATHAM        CLOUDY    34  25  69 CALM      30.25S                  
PROVINCETOWN   CLOUDY    33  26  75 SW15G22   30.24S WCI  23          
NANTUCKET      CLOUDY    35  28  75 CALM      30.25R                  
MARTHAS VNYRD  CLOUDY    36  27  69 CALM      30.25R                  
$$
 
MAZALL-221500-
CENTRAL AND WESTERN MASSACHUSETTS
  
CITY           SKY/WX    TMP DP  RH WIND       PRES   REMARKS
WORCESTER      CLOUDY    28  23  81 SW5       30.16R WCI  23          
FITCHBURG      CLOUDY    29  22  75 SW3       30.22R                  
ORANGE         CLOUDY    29  23  78 SW3       30.20R                  
SPRINGFIELD    CLOUDY    31  23  73 CALM      30.18R                  
WESTFIELD      CLOUDY    30  24  78 CALM      30.19R                  
NORTH ADAMS    CLOUDY    30  22  72 CALM      30.15F                  
PITTSFIELD     CLOUDY    28  21  75 S7        30.11S WCI  21          
$$
 
RIZALL-221500-
RHODE ISLAND
  
CITY           SKY/WX    TMP DP  RH WIND       PRES   REMARKS
PROVIDENCE     CLOUDY    31  24  75 CALM      30.22S                  
NEWPORT        CLOUDY    31  24  75 SE5       30.22R WCI  26          
BLOCK ISLAND   CLOUDY    34  27  75 CALM      30.23R                  
SMITHFIELD     CLOUDY    30  25  81 CALM      30.21R                  
WESTERLY       CLOUDY    32  25  75 CALM      30.23R                  
$$
 
CTZALL-221500-
CONNECTICUT
  
CITY           SKY/WX    TMP DP  RH WIND       PRES   REMARKS
BRADLEY INTL   CLOUDY    32  24  72 SE5       30.20R WCI  27          
HARTFORD       CLOUDY    34  26  72 CALM      30.22R                  
BRIDGEPORT     CLOUDY    37  27  67 W5        30.22R                  
DANBURY        CLOUDY    34  24  67 CALM      30.20R                  
GROTON         CLOUDY    35  26  69 CALM      30.22R                  
NEW HAVEN      CLOUDY    39  28  64 SW6       30.21R                  
CHESTER        CLOUDY    32  27  80 CALM      30.20R                  
MERIDEN        CLOUDY    33  26  75 CALM      30.21R                  
WILLIMANTIC    CLOUDY    31  25  78 CALM      30.21R                  
OXFORD         CLOUDY    31  25  78 VRB3      30.19R                  
$$

MEZ002-015-021-024-NHZ003-005-008-011-012-014-VTZ005-008-221500-
NORTHERN NEW ENGLAND
  
CITY           SKY/WX    TMP DP  RH WIND       PRES   REMARKS
PORTLAND ME    MOSUNNY   14  12  92 W3        30.21R                  
BANGOR ME      PTSUNNY    6   5  95 CALM      30.20R                  
CONCORD NH     CLOUDY    20  14  77 CALM      30.20R                  
MANCHESTER NH  CLOUDY    28  24  85 CALM      30.20R                  
NASHUA NH      CLOUDY    29  28  96 CALM      30.23R                  
PORTSMOUTH NH  CLOUDY    25  20  83 W3        30.22R                  
JAFFREY NH     CLOUDY    27  23  85 SW3       30.15R                  
KEENE NH       CLOUDY    28  25  88 CALM      30.19R                  
BURLINGTON VT  CLOUDY    30  23  75 S14       30.14R WCI  19          
MT. WASHINGTON PTSUNNY   21  -4  33 SW35        N/A  WCI   2          
$$

NYZ052-076-221500-
EASTERN NEW YORK
  
CITY           SKY/WX    TMP DP  RH WIND       PRES   REMARKS
ALBANY         CLOUDY    32  24  72 S6        30.16F WCI  26          
NEW YORK CITY  CLOUDY    38  22  52 SW8       30.22R                  
$$
 
ANZALL-221500-
MARINE OBSERVATIONS
  
STATION/POSITION TIME  TEMP    WIND        PRES    VSBY  WAVE
                       AIR SEA DIR/SP/G                  HT/PER
                 (UTC) (F)     (DEG/KT/KT) (MB)    (MI)  (FT/S)
BOSTON BUOY      1350      42              1024.3F
BUZZARDS BAY     1300   33     350/  1/  3 1023.7F
NANTUCKET SOUND  1350   36 42  260/ 10/ 12 1024.3R         1
MASS BAY-STELLWA 1204   30 41  270/  8/ 12 1022.4F  1 7/8  3/11
ISLE OF SHOALS   1300   29     240/ 15/ 18 1022.7R
S OF BLOCK IS    1356      44                N/A           2/11
$$

......................KEY.........................
  SKY/WX - SKY CONDITION/PRESENT WEATHER
  TMP    - TEMPERATURE IN FAHRENHEIT
  DWPT   - DEWPOINT IN FAHRENHEIT
  RH     - RELATIVE HUMIDITY IN PERCENT
  WIND   - DIRECTION AND SPEED IN MPH
  PRES   - MEAN SEA LEVEL PRESSURE IN INCHES OF HG
  WCI    - WIND CHILL INDEX
  VSB    - VISIBILITY IN MILES
  HX     - HEAT INDEX
  TC     - TEMPERATURE IN CELSIUS
  VRB    - VARIABLE WIND DIRECTION
  N/A    - NOT AVAILABLE
  
      

Other recent Regional Weather Roundups

Sat Jan 28, 10:10pm EST

Sat Jan 28, 9:10pm EST

Sat Jan 28, 8:10pm EST

Sat Jan 28, 7:10pm EST

Sat Jan 28, 6:10pm EST

Sat Jan 28, 5:10pm EST

Sat Jan 28, 4:10pm EST

Sat Jan 28, 3:10pm EST

Sat Jan 28, 2:10pm EST

Sat Jan 28, 1:10pm EST

Sat Jan 28, 12:10pm EST

Sat Jan 28, 11:10am EST

Sat Jan 28, 10:10am EST

Sat Jan 28, 9:10am EST

Sat Jan 28, 8:10am EST

Sat Jan 28, 7:10am EST

Sat Jan 28, 6:10am EST

Sat Jan 28, 5:10am EST

Sat Jan 28, 4:10am EST

Sat Jan 28, 3:10am EST

Sat Jan 28, 2:10am EST

Sat Jan 28, 1:10am EST

Sat Jan 28, 12:10am EST

Fri Jan 27, 11:10pm EST

Fri Jan 27, 10:10pm EST

Fri Jan 27, 9:10pm EST

Fri Jan 27, 8:10pm EST

Fri Jan 27, 7:10pm EST

Fri Jan 27, 6:10pm EST

Fri Jan 27, 5:10pm EST

Fri Jan 27, 4:10pm EST

Fri Jan 27, 3:10pm EST

Fri Jan 27, 2:10pm EST

Fri Jan 27, 1:10pm EST

Fri Jan 27, 12:10pm EST

Fri Jan 27, 11:10am EST

Fri Jan 27, 10:10am EST

Fri Jan 27, 9:10am EST

Fri Jan 27, 8:10am EST

Fri Jan 27, 7:10am EST

Fri Jan 27, 6:10am EST

Fri Jan 27, 5:10am EST

Fri Jan 27, 4:10am EST

Fri Jan 27, 3:10am EST

Fri Jan 27, 2:10am EST

Fri Jan 27, 1:10am EST

Fri Jan 27, 12:10am EST

Thu Jan 26, 11:10pm EST

Thu Jan 26, 10:10pm EST

Thu Jan 26, 9:10pm EST

Thu Jan 26, 8:10pm EST

Thu Jan 26, 7:10pm EST

Thu Jan 26, 6:10pm EST

Thu Jan 26, 5:10pm EST

Thu Jan 26, 4:10pm EST

Thu Jan 26, 3:10pm EST

Thu Jan 26, 2:10pm EST

Thu Jan 26, 1:10pm EST

Thu Jan 26, 12:10pm EST

Thu Jan 26, 11:10am EST

Thu Jan 26, 10:10am EST

Thu Jan 26, 9:10am EST

Thu Jan 26, 8:10am EST

Thu Jan 26, 7:10am EST

Thu Jan 26, 6:10am EST

Thu Jan 26, 5:10am EST

Thu Jan 26, 4:10am EST

Thu Jan 26, 3:10am EST

Thu Jan 26, 2:10am EST

Thu Jan 26, 1:10am EST

Thu Jan 26, 12:10am EST

Wed Jan 25, 11:10pm EST

Wed Jan 25, 10:10pm EST

Wed Jan 25, 9:10pm EST

Wed Jan 25, 8:10pm EST

Wed Jan 25, 7:10pm EST

Wed Jan 25, 6:10pm EST

Wed Jan 25, 5:10pm EST

Wed Jan 25, 4:10pm EST

Wed Jan 25, 3:10pm EST

Wed Jan 25, 2:10pm EST

Wed Jan 25, 1:10pm EST

Wed Jan 25, 12:10pm EST

Wed Jan 25, 11:10am EST

Wed Jan 25, 10:10am EST

Wed Jan 25, 9:10am EST

Wed Jan 25, 8:10am EST

Wed Jan 25, 7:10am EST

Wed Jan 25, 6:10am EST

Wed Jan 25, 5:10am EST

Wed Jan 25, 4:10am EST

Wed Jan 25, 3:10am EST

Wed Jan 25, 2:10am EST

Wed Jan 25, 1:10am EST

Wed Jan 25, 12:10am EST

Tue Jan 24, 11:10pm EST

Tue Jan 24, 10:10pm EST

Tue Jan 24, 9:10pm EST

Tue Jan 24, 8:10pm EST

Tue Jan 24, 7:10pm EST

Tue Jan 24, 6:10pm EST

Tue Jan 24, 5:10pm EST

Tue Jan 24, 4:10pm EST

Tue Jan 24, 3:10pm EST

Tue Jan 24, 2:10pm EST

Tue Jan 24, 1:10pm EST

Tue Jan 24, 12:10pm EST

Tue Jan 24, 11:10am EST

Tue Jan 24, 10:10am EST

Tue Jan 24, 9:10am EST

Tue Jan 24, 8:10am EST

Tue Jan 24, 7:10am EST

Tue Jan 24, 6:10am EST

Tue Jan 24, 5:10am EST

Tue Jan 24, 4:10am EST

Tue Jan 24, 3:10am EST

Tue Jan 24, 2:10am EST

Tue Jan 24, 1:10am EST

Tue Jan 24, 12:10am EST

Mon Jan 23, 11:10pm EST

Mon Jan 23, 10:10pm EST

Mon Jan 23, 9:10pm EST

Mon Jan 23, 8:10pm EST

Mon Jan 23, 7:10pm EST

Mon Jan 23, 6:10pm EST

Mon Jan 23, 5:10pm EST

Mon Jan 23, 4:10pm EST

Mon Jan 23, 3:10pm EST

Mon Jan 23, 2:10pm EST

Mon Jan 23, 1:10pm EST

Mon Jan 23, 12:10pm EST

Mon Jan 23, 11:10am EST

Mon Jan 23, 10:10am EST

Mon Jan 23, 9:10am EST

Mon Jan 23, 8:10am EST

Mon Jan 23, 7:10am EST

Mon Jan 23, 6:10am EST

Mon Jan 23, 5:10am EST

Mon Jan 23, 4:10am EST

Mon Jan 23, 3:10am EST

Mon Jan 23, 2:10am EST

Mon Jan 23, 1:10am EST

Mon Jan 23, 12:10am EST

Sun Jan 22, 11:10pm EST

Sun Jan 22, 10:10pm EST

Sun Jan 22, 9:10pm EST

Sun Jan 22, 8:10pm EST

Sun Jan 22, 7:10pm EST

Sun Jan 22, 6:10pm EST

Sun Jan 22, 5:10pm EST

Sun Jan 22, 4:10pm EST

Sun Jan 22, 3:10pm EST

Sun Jan 22, 2:10pm EST

Sun Jan 22, 1:10pm EST

Sun Jan 22, 12:10pm EST

Sun Jan 22, 11:10am EST

Sun Jan 22, 10:10am EST

Sun Jan 22, 8:10am EST

Sun Jan 22, 7:10am EST

Sun Jan 22, 6:10am EST

Sun Jan 22, 5:10am EST

Sun Jan 22, 4:10am EST

Sun Jan 22, 3:10am EST

Sun Jan 22, 2:10am EST

Sun Jan 22, 1:10am EST

Sun Jan 22, 12:10am EST

Sat Jan 21, 11:10pm EST